Regional Weather Roundup
Issued by NWS Cleveland, OH

Home | Current Version | Previous Version | Graphics & Text | Print | Product List | Glossary On
Versions: 1 2 3 4 5 6 7 8 9 10 11 12 13 14 15 16 17 18 19 20 21 22 23 24 25 26 27 28 29 30 31 32 33 34 35 36 37 38 39 40 41 42 43 44 45 46 47 48 49 50
000
ASUS41 KCLE 090902
RWRCLE
OHIO REGIONAL WEATHER ROUNDUP
NATIONAL WEATHER SERVICE CLEVELAND, OH
400 AM EST FRI DEC 09 2016

NOTE: "FAIR" INDICATES FEW OR NO CLOUDS BELOW 12,000 FEET WITH NO
SIGNIFICANT WEATHER AND/OR OBSTRUCTIONS TO VISIBILITY.

OHZ001>008-015>018-024>027-034-035-043-044-091000-
   NORTHWEST OHIO

CITY           SKY/WX    TMP DP  RH WIND       PRES   REMARKS
DEFIANCE       CLOUDY    23  15  71 SW9       30.37R WCI  13
FINDLAY        CLOUDY    22  15  75 W18G26    30.35S WCI   7
TOLEDO EXPRESS CLOUDY    23  19  85 W17G25    30.33R WCI   9
TOLEDO EXEC    CLOUDY    24  19  81 W12       30.35R WCI  13
LIMA           CLOUDY    21  16  81 W20       30.38R WCI   6
$$

OHZ009>014-019>023-028>033-038-089-091000-
   NORTHEAST OHIO

CITY           SKY/WX    TMP DP  RH WIND       PRES   REMARKS
CLE-HOPKINS    FLURRIES  25  17  72 W17       30.33R WCI  12
CLE-LAKEFRONT  CLOUDY    26  19  74 SW21G31   30.29R WCI  12
CUY CO. ARPT   NOT AVBL
LORAIN-ELYRIA  CLOUDY    22  15  75 W16       30.32R WCI   8
ASHTABULA      CLOUDY    24  21  88 SW16      30.22R WCI  11
AKRON-CANTON   FLURRIES  22  16  78 W12       30.29S WCI  10
WOOSTER        CLOUDY    21  16  81 W14       30.31S WCI   8
MANSFIELD      LGT SNOW  20  16  84 W14       30.31R FOG     WCI   7
YOUNGSTOWN     FLURRIES  23  17  78 W16G28    30.23R WCI  10
$$

OHZ042-051>053-060>062-070>072-077>081-091000-
  SOUTHWEST OHIO

CITY           SKY/WX    TMP DP  RH WIND       PRES   REMARKS
CINC-COVINGTON FLURRIES  22  13  68 NW14      30.47S WCI   9
CINC-LUNKEN    CLOUDY    24  14  65 W12       30.51S WCI  13
HAMILTON       CLOUDY    22  15  75 W13       30.49R WCI  10
DAYTON         PTCLDY    18  13  80 W13       30.42R WCI   5
WRIGHT-PAT AFB PTCLDY    19  13  79 SW7       30.43R WCI   9
DAYTON GENERAL PTCLDY    20  14  77 W10       30.43R WCI   9
WILMINGTON     CLOUDY    18  13  80 W12       30.42R WCI   5
$$

OHZ036-037-039>041-045>050-054>059-063>069-073>076-082>088-091000-
  CENTRAL AND SOUTHEAST OHIO

CITY           SKY/WX    TMP DP  RH WIND       PRES   REMARKS
COLUMBUS       FLURRIES  21  17  84 W8        30.40S WCI  11
OSU AIRPORT    CLOUDY    21  15  78 W10       30.39S WCI  10
BOLTON FIELD   CLOUDY    21  14  75 W8        30.41R WCI  11
RICKENBACK AFB   N/A     21  14  73 W9G17     30.42R WCI  11
NEWARK         CLOUDY    21  15  78 SW9       30.39R WCI  11
MARION         CLOUDY    21  15  78 W12       30.36S WCI   9
LANCASTER      LGT SNOW  21  15  78 W9        30.41S WCI  11
ZANESVILLE     CLOUDY    22  16  78 SW8       30.37S WCI  12
NEW PHILLY     NOT AVBL
$$




USA.gov is the U.S. government's official web portal to all federal, state and local government web resources and services.